Continuing Process of Deterimining 10-28-11 Launch Satellite Identities - 12-01-2011
I have no new information to share this week concerning the 10-28-11 satellite launch.
So far everyone who has weighed in on this, agrees that Object G is E1P (Explorer-1 Prime,CAT# 37855). RAX2 is probably Object E which is CAT# 37853. Objects C (Cat# 37851)and D (CAT# 37852) are possibly two non-amateur DICE (Dynamic Ionosphere Cubesat Experiment) satellites.
Here are the current KEPs for Objects B through G:
OBJECTB 1 37850U 11061B 11335.35379258 .00006216 00000-0 25758-2 0 318 2 37850 074.0224 333.3670 0058820 183.8284 176.2428 14.25810762 4994 OBJECTC 1 37851U 11061B 11335.77903482 .00005433 00000-0 44695-3 0 342 2 37851 101.7084 281.0782 0254552 195.4122 163.9188 14.77963350 5064 OBJECTD 1 37852U 11061D 11334.89840245 .00005696 00000-0 46783-3 0 00387 2 37852 101.7070 279.8010 0254395 197.9316 161.2793 14.78002321004948 OBJECTE 1 37853U 11061E 11334.96506820 .00005733 00000-0 47085-3 0 00337 2 37853 101.6994 279.8834 0254031 198.0397 161.1646 14.78051401004955 OBJECTF 1 37854U 11061E 11335.84070964 .00006374 00000-0 51608-3 0 340 2 37854 101.7036 281.1694 0255290 195.0285 164.3221 14.78269655 5064 OBJECTG 1 37855U 11061F 11335.84128847 .00006165 00000-0 49988-3 0 329 2 37855 101.7072 281.1754 0255380 195.0474 164.3035 14.78230731 5068
participants (1)
-
Ray Hoad